SJ-9A

导读

SJ-9A是中国于2012年10月14日08:00发射的实践系列卫星,作为航天技术试验领域的重要成员,它主要承担空间环境探测、新技术在轨验证等任务,帮助科研人员获取太空环境参数,验证新型航天技术,为中国后续卫星技术发展、空间科学研究积累了宝贵数据与实践经验。

Basic Information
目录编号:
38860
目录名称:
SJ-9A
国际标识:
2012-056A
轨道中心:
EARTH
卫星名称:
SJ-9A
卫星全名:
--
卫星状态:
在轨 (已飞行5080 天)
发射日期:
2012-10-14 UTC
国别 :
中国 (CN)
星等 :
--
This satellite is enrolled in the Space Conjunction Data Service (SCDS) and the current flight risk assessment level is: No High Risk
Orbit Information
数据来源 国际轨道数据 AOE轨道数据
星历时间 2026-09-11T13:53:56+0800
13小时前
查看轨道信息
2026-09-10T08:00:00+0800
1天前
查看轨道信息
半长轴 6989.732km 6989.729km
偏心率 0.002489 0.0025227
轨道倾角 97.682° 97.683°
近地点辐角 337.651° 342.135°
升交点赤经 223.138° 221.934°
平近点角 22.362° 199.157°
近地点 594.197km 593.959km
远地点 628.993km 629.225km
周期 96.928分钟 96.928分钟
每日圈数 14.856347 14.856356
Detailed Information
使用方式:
暂无
2D Orbit Map
3D Orbit Map
Orbit Altitude Analysis Chart
Orbit Inclination Analysis Chart
Orbit Comprehensive Analysis Chart
View Comprehensive Chart
Conjunction Data List
Event ID Objects TCA Miss Dist (km) Collision Risk Probability Collision Risk Index (CRI) Action
CDM_260911-161003-886006-713826
SJ-9A (38860)
2026-09-11T
16:10:29+0000
0.417 km
远距离
2.485268E-4 高风险 0.83
CDM_260912-144803-886006-713524
SJ-9A (38860)
2026-09-12T
14:48:26+0000
1.073 km
极远距离
1.652343E-5 中风险 0.59
Miss Distance Evolution Trend with All Objects
Collision Probability Evolution Trend with All Objects